Hourly Data Report for October 12, 2013

All times are specified in Local Standard Time (LST). Add 1 hour to adjust for Daylight Saving Time where and when it is observed.

ARVIAT A
NUNAVUT

61°05'38.000" N
94°04'18.000" W
10.40 m
2300427
71174
YEK

Download Data

Hourly Data (October 2013)
Hourly Data Report for October 12, 2013
Temp Definition
°C
Dew Point Temp Definition
°C
Rel Hum Definition
%
Wind Dir Definition
10's deg

Wind Spd Definition
km/h
Visibility Definition
km
Stn Press Definition
kPa
Hmdx Definition


Wind Chill Definition


Weather Definition


TIME
00:00 Legend Double Dagger 3.3 3.3 100 LegendMM 4 1.2 100.73     LegendNANA
01:00 Legend Double Dagger 3.3 3.3 100 34 9 6.4 100.71     LegendNANA
02:00 Legend Double Dagger 3.4 3.4 100 35 17 16.1 100.65     LegendNANA
03:00 Legend Double Dagger 3.9 3.9 100 35 26 16.1 100.61     LegendNANA
04:00 Legend Double Dagger 3.6 3.3 98 1 26 16.1 100.61     LegendNANA
05:00 Legend Double Dagger 3.7 3.3 97 1 22 16.1 100.55     LegendNANA
06:00 Legend Double Dagger 3.5 2.9 96 36 30 16.1 100.52     LegendNANA
07:00 Legend Double Dagger 2.9 2.0 94 1 24 16.1 100.48     LegendNANA
08:00 Legend Double Dagger 2.8 2.1 95 36 22 16.1 100.49     LegendNANA
09:00 Legend Double Dagger 2.6 1.9 95 36 26 16.1 100.44     LegendNANA
10:00 Legend Double Dagger 2.5 1.8 95 36 32 16.1 100.33     LegendNANA
11:00 Legend Double Dagger 2.5 1.5 93 36 32 16.1 100.33     LegendNANA
12:00 Legend Double Dagger 2.5 1.8 95 1 32 16.1 100.25     LegendNANA
13:00 Legend Double Dagger 2.8 1.8 93 36 30 16.1 100.22     LegendNANA
14:00 Legend Double Dagger 2.3 1.9 97 35 35 6.4 100.18     LegendNANA
15:00 Legend Double Dagger 2.4 2.0 97 36 39 9.7 100.14     LegendNANA
16:00 Legend Double Dagger 2.4 2.1 98 36 33 4.8 100.15     LegendNANA
17:00 Legend Double Dagger 2.0 1.7 98 36 37 6.4 100.12     LegendNANA
18:00 Legend Double Dagger 1.8 1.4 97 36 41 16.1 100.04     LegendNANA
19:00 Legend Double Dagger 1.7 1.4 98 36 41 6.4 100.02     LegendNANA
20:00 Legend Double Dagger 1.6 1.3 98 36 35 8.1 99.97     LegendNANA
21:00 Legend Double Dagger 1.6 1.2 97 36 41 4.8 99.92     LegendNANA
22:00 Legend Double Dagger 1.4 1.0 97 35 45 9.7 99.86     LegendNANA
23:00 Legend Double Dagger 1.2 0.9 98 35 48 8.1 99.87     LegendNANA

Notes on Data Quality.

Legend

  • E = Estimated
  • M = Missing
  • NA = Not Available
  • ‡ = Partner data that is not subject to review by the National Climate Archives
Date modified: